Location: Tel Aviv
(32.0670°N, 34.7670°E)
Time: 13:07:33
(UTC+03:00)

Explorer 11/Cluster Stage 4 - Pass Details

Date: 20 September 2024
Orbit: 464 x 1208 km, 28.8° (Epoch: 05 October)

Event Time Altitude Azimuth Distance (km) Brightness Sun altitude
Rises 06:52:23 0° 263° (W) 3,225 9.1 4.3°
Reaches altitude 10° 06:54:40 10° 260° (W) 2,407 8.5 4.8°
Maximum altitude 07:00:28 67° 179° (S) 1,023 7.3 6.0°
Drops below altitude 10° 07:07:35 10° 98° (E) 2,926 12.6 7.5°
Sets 07:10:36 0° 96° (E) 3,968 12.8 8.2°
